Time,TemperatureF,DewpointF,PressureIn,WindDirection,WindDirectionDegrees,WindSpeedMPH,WindSpeedGustMPH,Humidity,HourlyPrecipIn,Conditions,Clouds,dailyrainin,SoftwareType,DateUTC
2013-01-31 00:00:00,55.0,53.3,29.17,WSW,250,1.0,10.0,94,0.21,,-RA,0.78,VWS V14.01,2013-01-31 05:00:00,
2013-01-31 00:01:00,55.0,53.3,29.17,SW,236,3.0,3.0,94,0.16,,RA,0.00,VWS V14.01,2013-01-31 05:01:00,
2013-01-31 00:02:00,55.0,53.3,29.17,SW,217,2.0,4.0,94,0.17,,RA,0.01,VWS V14.01,2013-01-31 05:02:00,
2013-01-31 00:07:00,55.0,53.3,29.16,ESE,114,0.0,6.0,94,0.18,,RA,0.02,VWS V14.01,2013-01-31 05:07:00,
2013-01-31 00:12:00,54.9,53.2,29.16,SW,218,2.0,6.0,94,0.19,,RA,0.03,VWS V14.01,2013-01-31 05:12:00,
2013-01-31 00:17:00,54.8,53.1,29.15,ESE,105,5.0,7.0,94,0.21,,RA,0.05,VWS V14.01,2013-01-31 05:17:00,
2013-01-31 00:22:00,54.9,53.2,29.15,North,359,0.0,7.0,94,0.22,,RA,0.06,VWS V14.01,2013-01-31 05:22:00,
2013-01-31 00:27:00,55.0,53.3,29.14,East,101,2.0,11.0,94,0.24,,RA,0.08,VWS V14.01,2013-01-31 05:27:00,
2013-01-31 00:32:00,55.1,53.4,29.14,SW,232,0.0,4.0,94,0.19,,RA,0.10,VWS V14.01,2013-01-31 05:32:00,
2013-01-31 00:37:00,54.7,52.7,29.13,ESE,120,4.0,5.0,93,0.21,,RA,0.12,VWS V14.01,2013-01-31 05:37:00,
2013-01-31 00:42:00,54.8,53.4,29.13,SW,225,4.0,12.0,95,0.24,,RA,0.15,VWS V14.01,2013-01-31 05:42:00,
2013-01-31 00:47:00,54.8,53.1,29.12,SW,224,6.0,12.0,94,0.26,,RA,0.17,VWS V14.01,2013-01-31 05:47:00,
2013-01-31 00:52:00,54.8,53.1,29.12,WSW,248,3.0,12.0,94,0.27,,RA,0.18,VWS V14.01,2013-01-31 05:52:00,
2013-01-31 00:57:00,54.9,53.2,29.11,SW,226,6.0,12.0,94,0.29,,RA,0.20,VWS V14.01,2013-01-31 05:57:00,
2013-01-31 01:02:00,55.0,53.3,29.11,SW,224,6.0,6.0,94,0.20,, +RA,0.20,VWS V14.01,2013-01-31 06:02:00,
2013-01-31 01:07:00,55.3,53.3,29.13,WSW,250,12.0,15.0,93,0.21,, +RA,0.21,VWS V14.01,2013-01-31 06:07:00,
2013-01-31 01:12:00,55.0,53.0,29.14,WNW,301,4.0,15.0,93,0.25,, +RA,0.25,VWS V14.01,2013-01-31 06:12:00,
2013-01-31 01:17:00,54.8,52.5,29.13,WNW,284,6.0,15.0,92,0.26,, +RA,0.26,VWS V14.01,2013-01-31 06:17:00,
2013-01-31 01:22:00,55.1,52.2,29.13,West,281,6.0,16.0,90,0.26,, +RA,0.26,VWS V14.01,2013-01-31 06:22:00,
2013-01-31 01:27:00,55.0,52.1,29.13,WNW,293,2.0,16.0,90,0.27,, +RA,0.27,VWS V14.01,2013-01-31 06:27:00,
2013-01-31 01:32:00,54.7,52.1,29.13,WNW,283,8.0,8.0,91,0.19,,RA,0.28,VWS V14.01,2013-01-31 06:32:00,
2013-01-31 01:37:00,54.4,51.8,29.13,NW,318,6.0,10.0,91,0.20,,RA,0.29,VWS V14.01,2013-01-31 06:37:00,
2013-01-31 01:42:00,54.2,51.9,29.11,WNW,284,4.0,13.0,92,0.21,,RA,0.30,VWS V14.01,2013-01-31 06:42:00,
2013-01-31 01:47:00,53.9,51.9,29.10,WNW,302,4.0,13.0,93,0.22,,RA,0.31,VWS V14.01,2013-01-31 06:47:00,
2013-01-31 01:52:00,53.7,51.7,29.10,WNW,296,5.0,13.0,93,0.23,,RA,0.32,VWS V14.01,2013-01-31 06:52:00,
2013-01-31 01:57:00,53.4,51.4,29.08,WNW,290,3.0,13.0,93,0.23,,RA,0.32,VWS V14.01,2013-01-31 06:57:00,
2013-01-31 02:02:00,53.3,51.6,29.08,NNW,329,7.0,7.0,94,0.12,,RA,0.32,VWS V14.01,2013-01-31 07:02:00,
2013-01-31 02:07:00,53.3,51.3,29.09,West,280,3.0,7.0,93,0.13,,RA,0.33,VWS V14.01,2013-01-31 07:07:00,
2013-01-31 02:12:00,53.2,51.2,29.10,West,273,6.0,7.0,93,0.13,,RA,0.33,VWS V14.01,2013-01-31 07:12:00,
2013-01-31 02:17:00,53.0,51.0,29.11,WNW,287,3.0,8.0,93,0.14,,RA,0.34,VWS V14.01,2013-01-31 07:17:00,
2013-01-31 02:22:00,52.9,51.2,29.11,WNW,293,4.0,9.0,94,0.15,,RA,0.35,VWS V14.01,2013-01-31 07:22:00,
2013-01-31 02:27:00,52.7,51.0,29.10,WNW,295,5.0,9.0,94,0.18,,RA,0.38,VWS V14.01,2013-01-31 07:27:00,
2013-01-31 02:32:00,52.6,50.9,29.10,NNW,328,3.0,9.0,94,0.12,,RA,0.40,VWS V14.01,2013-01-31 07:32:00,
2013-01-31 02:37:00,52.5,51.1,29.08,NW,321,8.0,13.0,95,0.13,,RA,0.41,VWS V14.01,2013-01-31 07:37:00,
2013-01-31 02:42:00,52.4,51.0,29.10,WNW,290,8.0,15.0,95,0.14,,RA,0.42,VWS V14.01,2013-01-31 07:42:00,
2013-01-31 02:47:00,52.2,50.5,29.11,SW,225,7.0,16.0,94,0.15,,RA,0.43,VWS V14.01,2013-01-31 07:47:00,
2013-01-31 02:52:00,51.8,49.3,29.11,NNW,330,11.0,21.0,91,0.16,,RA,0.44,VWS V14.01,2013-01-31 07:52:00,
2013-01-31 02:57:00,50.9,47.5,29.11,WNW,284,13.0,24.0,88,0.16,,RA,0.44,VWS V14.01,2013-01-31 07:57:00,
2013-01-31 03:02:00,50.4,47.0,29.12,WNW,291,18.0,19.0,88,0.13,,-RA,0.45,VWS V14.01,2013-01-31 08:02:00,
2013-01-31 03:07:00,49.9,46.8,29.12,NW,322,2.0,19.0,89,0.14,,-RA,0.46,VWS V14.01,2013-01-31 08:07:00,
2013-01-31 03:12:00,49.6,46.5,29.11,WNW,295,6.0,19.0,89,0.14,,-RA,0.46,VWS V14.01,2013-01-31 08:12:00,
2013-01-31 03:17:00,49.1,46.3,29.09,WNW,297,6.0,19.0,90,0.15,,-RA,0.47,VWS V14.01,2013-01-31 08:17:00,
2013-01-31 03:22:00,49.0,46.5,29.12,WNW,287,5.0,19.0,91,0.15,,-RA,0.47,VWS V14.01,2013-01-31 08:22:00,
2013-01-31 03:27:00,48.8,46.6,29.12,WSW,250,4.0,19.0,92,0.15,,-RA,0.47,VWS V14.01,2013-01-31 08:27:00,
2013-01-31 03:32:00,48.8,46.3,29.12,WNW,294,15.0,15.0,91,0.08,,-RA,0.48,VWS V14.01,2013-01-31 08:32:00,
2013-01-31 03:37:00,48.5,46.0,29.13,WNW,285,10.0,32.0,91,0.08,,-RA,0.48,VWS V14.01,2013-01-31 08:37:00,
2013-01-31 03:42:00,47.1,41.6,29.13,WNW,293,17.0,32.0,81,0.08,,-RA,0.48,VWS V14.01,2013-01-31 08:42:00,
2013-01-31 03:47:00,45.8,39.3,29.13,WNW,291,23.0,32.0,78,0.08,,-RA,0.48,VWS V14.01,2013-01-31 08:47:00,
2013-01-31 03:52:00,45.0,38.9,29.14,West,262,12.0,32.0,79,0.08,,-RA,0.48,VWS V14.01,2013-01-31 08:52:00,
2013-01-31 03:57:00,44.6,37.5,29.17,WNW,291,11.0,32.0,76,0.08,,-RA,0.48,VWS V14.01,2013-01-31 08:57:00,
2013-01-31 04:02:00,44.5,37.1,29.16,North,350,9.0,24.0,75,0.04,,-RA,0.48,VWS V14.01,2013-01-31 09:02:00,
2013-01-31 04:07:00,44.4,36.7,29.16,West,281,9.0,27.0,74,0.04,,-RA,0.48,VWS V14.01,2013-01-31 09:07:00,
2013-01-31 04:12:00,44.2,36.1,29.16,WNW,297,10.0,27.0,73,0.04,,-RA,0.48,VWS V14.01,2013-01-31 09:12:00,
2013-01-31 04:17:00,44.0,36.3,29.17,WNW,300,17.0,27.0,74,0.04,,-RA,0.48,VWS V14.01,2013-01-31 09:17:00,
2013-01-31 04:22:00,43.7,36.0,29.16,NW,309,23.0,30.0,74,0.04,,-RA,0.48,VWS V14.01,2013-01-31 09:22:00,
2013-01-31 04:27:00,43.5,35.8,29.17,WNW,290,21.0,30.0,74,0.04,,-RA,0.48,VWS V14.01,2013-01-31 09:27:00,
2013-01-31 04:32:00,43.3,35.9,29.16,WNW,290,19.0,28.0,75,0.01,,-RA,0.48,VWS V14.01,2013-01-31 09:32:00,
2013-01-31 04:37:00,43.1,35.4,29.17,WNW,283,19.0,28.0,74,0.01,,-RA,0.48,VWS V14.01,2013-01-31 09:37:00,
2013-01-31 04:42:00,42.9,35.2,29.17,NW,304,18.0,28.0,74,0.01,,-RA,0.48,VWS V14.01,2013-01-31 09:42:00,
2013-01-31 04:47:00,42.7,35.0,29.18,WNW,290,13.0,28.0,74,0.01,,-RA,0.48,VWS V14.01,2013-01-31 09:47:00,
2013-01-31 04:52:00,42.6,34.9,29.18,NW,324,13.0,28.0,74,0.01,,-RA,0.48,VWS V14.01,2013-01-31 09:52:00,
2013-01-31 04:57:00,42.4,34.7,29.18,WNW,297,13.0,28.0,74,0.01,,-RA,0.48,VWS V14.01,2013-01-31 09:57:00,
2013-01-31 05:02:00,42.2,35.2,29.18,WNW,293,13.0,24.0,76,0.00,,OVC090,0.48,VWS V14.01,2013-01-31 10:02:00,
2013-01-31 05:07:00,41.7,35.7,29.18,WNW,291,19.0,26.0,79,0.00,,OVC090,0.48,VWS V14.01,2013-01-31 10:07:00,
2013-01-31 05:12:00,41.2,35.8,29.18,WNW,296,16.0,29.0,81,0.00,,OVC090,0.48,VWS V14.01,2013-01-31 10:12:00,
2013-01-31 05:17:00,40.8,35.1,29.19,WNW,302,21.0,29.0,80,0.00,,OVC090,0.48,VWS V14.01,2013-01-31 10:17:00,
2013-01-31 05:22:00,40.8,34.5,29.20,West,278,13.0,29.0,78,0.00,,OVC090,0.48,VWS V14.01,2013-01-31 10:22:00,
2013-01-31 05:27:00,40.7,33.7,29.21,WNW,288,13.0,30.0,76,0.00,,OVC090,0.48,VWS V14.01,2013-01-31 10:27:00,
2013-01-31 05:32:00,40.6,33.3,29.21,NW,304,24.0,27.0,75,0.00,,OVC090,0.48,VWS V14.01,2013-01-31 10:32:00,
2013-01-31 05:37:00,40.4,33.1,29.22,WNW,286,12.0,27.0,75,0.00,,OVC090,0.48,VWS V14.01,2013-01-31 10:37:00,
2013-01-31 05:42:00,40.3,32.7,29.23,WNW,302,7.0,27.0,74,0.00,,OVC090,0.48,VWS V14.01,2013-01-31 10:42:00,
2013-01-31 05:47:00,40.1,32.2,29.23,WNW,288,17.0,29.0,73,0.00,,OVC090,0.48,VWS V14.01,2013-01-31 10:47:00,
2013-01-31 05:52:00,39.9,31.6,29.24,WNW,290,15.0,29.0,72,0.00,,OVC090,0.48,VWS V14.01,2013-01-31 10:52:00,
2013-01-31 05:57:00,39.9,31.6,29.24,WNW,293,20.0,29.0,72,0.00,,OVC090,0.48,VWS V14.01,2013-01-31 10:57:00,
2013-01-31 06:02:00,39.7,31.1,29.25,West,270,16.0,26.0,71,0.00,,SCT120,0.48,VWS V14.01,2013-01-31 11:02:00,
2013-01-31 06:07:00,39.6,31.0,29.25,West,276,9.0,26.0,71,0.00,,SCT120,0.48,VWS V14.01,2013-01-31 11:07:00,
2013-01-31 06:11:00,39.5,30.9,29.25,West,270,15.0,26.0,71,0.00,,SCT120,0.48,VWS V14.01,2013-01-31 11:11:00,
2013-01-31 06:16:00,39.3,31.0,29.26,WNW,291,8.0,26.0,72,0.00,,SCT120,0.48,VWS V14.01,2013-01-31 11:16:00,
2013-01-31 06:21:00,39.1,30.9,29.26,West,276,20.0,26.0,72,0.00,,SCT120,0.48,VWS V14.01,2013-01-31 11:21:00,
2013-01-31 06:26:00,39.1,30.5,29.27,WNW,296,13.0,26.0,71,0.00,,SCT120,0.48,VWS V14.01,2013-01-31 11:26:00,
2013-01-31 06:31:00,39.1,30.5,29.28,West,273,8.0,18.0,71,0.00,,SCT120,0.48,VWS V14.01,2013-01-31 11:31:00,
2013-01-31 06:36:00,39.1,30.2,29.28,West,280,9.0,29.0,70,0.00,,SCT120,0.48,VWS V14.01,2013-01-31 11:36:00,
2013-01-31 06:41:00,39.1,29.8,29.29,WNW,296,9.0,29.0,69,0.00,,SCT120,0.48,VWS V14.01,2013-01-31 11:41:00,
2013-01-31 06:46:00,38.9,29.6,29.29,WNW,290,24.0,29.0,69,0.00,,SCT120,0.48,VWS V14.01,2013-01-31 11:46:00,
2013-01-31 06:51:00,38.8,28.8,29.30,West,271,10.0,29.0,67,0.00,,SCT120,0.48,VWS V14.01,2013-01-31 11:51:00,
2013-01-31 06:56:00,38.7,28.3,29.30,NW,308,16.0,29.0,66,0.00,,SCT120,0.48,VWS V14.01,2013-01-31 11:56:00,
2013-01-31 07:01:00,38.5,28.1,29.31,West,266,16.0,26.0,66,0.00,,SCT047,0.48,VWS V14.01,2013-01-31 12:01:00,
2013-01-31 07:06:00,38.4,27.7,29.31,WNW,300,14.0,26.0,65,0.00,,SCT047,0.48,VWS V14.01,2013-01-31 12:06:00,
2013-01-31 07:11:00,38.3,27.6,29.32,NNW,335,17.0,26.0,65,0.00,,SCT047,0.48,VWS V14.01,2013-01-31 12:11:00,
2013-01-31 07:16:00,38.1,27.4,29.32,West,280,8.0,26.0,65,0.00,,SCT047,0.48,VWS V14.01,2013-01-31 12:16:00,
2013-01-31 07:21:00,37.9,27.2,29.33,WNW,293,13.0,26.0,65,0.00,,SCT047,0.48,VWS V14.01,2013-01-31 12:21:00,
2013-01-31 07:26:00,37.8,27.1,29.33,WNW,296,9.0,30.0,65,0.00,,SCT047,0.48,VWS V14.01,2013-01-31 12:26:00,
2013-01-31 07:31:00,37.8,27.1,29.34,West,264,8.0,22.0,65,0.00,,SCT047,0.48,VWS V14.01,2013-01-31 12:31:00,
2013-01-31 07:36:00,37.7,27.0,29.34,WNW,288,16.0,30.0,65,0.00,,SCT047,0.48,VWS V14.01,2013-01-31 12:36:00,
2013-01-31 07:41:00,37.7,27.0,29.34,WNW,297,12.0,30.0,65,0.00,,SCT047,0.48,VWS V14.01,2013-01-31 12:41:00,
2013-01-31 07:46:00,37.6,27.3,29.35,West,279,12.0,30.0,66,0.00,,SCT047,0.48,VWS V14.01,2013-01-31 12:46:00,
2013-01-31 07:51:00,37.2,28.0,29.36,WNW,293,21.0,30.0,69,0.00,,SCT047,0.48,VWS V14.01,2013-01-31 12:51:00,
2013-01-31 07:56:00,36.9,28.0,29.36,WNW,295,9.0,30.0,70,0.00,,SCT047,0.48,VWS V14.01,2013-01-31 12:56:00,
2013-01-31 08:01:00,36.8,28.0,29.37,West,273,11.0,17.0,70,0.00,,BKN050,0.48,VWS V14.01,2013-01-31 13:01:00,
2013-01-31 08:06:00,36.8,26.9,29.38,West,266,16.0,31.0,67,0.00,,BKN050,0.48,VWS V14.01,2013-01-31 13:06:00,
2013-01-31 08:11:00,36.8,26.9,29.38,West,279,14.0,31.0,67,0.00,,BKN050,0.48,VWS V14.01,2013-01-31 13:11:00,
2013-01-31 08:16:00,36.9,24.7,29.39,WNW,297,24.0,31.0,61,0.00,,BKN050,0.48,VWS V14.01,2013-01-31 13:16:00,
2013-01-31 08:21:00,37.2,23.4,29.40,WNW,290,9.0,33.0,57,0.00,,BKN050,0.48,VWS V14.01,2013-01-31 13:21:00,
2013-01-31 08:26:00,37.3,23.5,29.39,WNW,302,15.0,33.0,57,0.00,,BKN050,0.48,VWS V14.01,2013-01-31 13:26:00,
2013-01-31 08:31:00,37.3,23.5,29.40,West,280,5.0,13.0,57,0.00,,BKN050,0.48,VWS V14.01,2013-01-31 13:31:00,
2013-01-31 08:36:00,37.3,23.9,29.41,WSW,243,11.0,23.0,58,0.00,,BKN050,0.48,VWS V14.01,2013-01-31 13:36:00,
2013-01-31 08:41:00,37.4,23.6,29.41,WNW,287,11.0,29.0,57,0.00,,BKN050,0.48,VWS V14.01,2013-01-31 13:41:00,
2013-01-31 08:46:00,37.5,23.2,29.41,WNW,296,10.0,29.0,56,0.00,,BKN050,0.48,VWS V14.01,2013-01-31 13:46:00,
2013-01-31 08:51:00,37.5,23.7,29.41,WSW,244,18.0,29.0,57,0.00,,BKN050,0.48,VWS V14.01,2013-01-31 13:51:00,
2013-01-31 08:56:00,37.5,23.7,29.41,WNW,285,17.0,29.0,57,0.00,,BKN050,0.48,VWS V14.01,2013-01-31 13:56:00,
2013-01-31 09:01:00,37.3,23.9,29.41,WNW,299,17.0,22.0,58,0.00,,FEW055,0.48,VWS V14.01,2013-01-31 14:01:00,
2013-01-31 09:06:00,37.2,25.0,29.41,WNW,285,13.0,24.0,61,0.00,,FEW055,0.48,VWS V14.01,2013-01-31 14:06:00,
2013-01-31 09:11:00,37.0,25.6,29.41,WNW,293,7.0,24.0,63,0.00,,FEW055,0.48,VWS V14.01,2013-01-31 14:11:00,
2013-01-31 09:16:00,36.8,25.8,29.42,WNW,301,16.0,24.0,64,0.00,,FEW055,0.48,VWS V14.01,2013-01-31 14:16:00,
2013-01-31 09:21:00,36.7,25.3,29.42,West,280,10.0,24.0,63,0.00,,FEW055,0.48,VWS V14.01,2013-01-31 14:21:00,
2013-01-31 09:26:00,36.9,25.9,29.42,WNW,290,7.0,26.0,64,0.00,,FEW055,0.48,VWS V14.01,2013-01-31 14:26:00,
2013-01-31 09:31:00,36.9,25.1,29.43,WNW,287,16.0,22.0,62,0.00,,FEW055,0.48,VWS V14.01,2013-01-31 14:31:00,
2013-01-31 09:36:00,37.1,26.1,29.43,NW,309,12.0,23.0,64,0.00,,FEW055,0.48,VWS V14.01,2013-01-31 14:36:00,
2013-01-31 09:41:00,37.2,26.5,29.43,WNW,293,12.0,23.0,65,0.00,,FEW055,0.48,VWS V14.01,2013-01-31 14:41:00,
2013-01-31 09:46:00,36.9,25.5,29.43,West,281,13.0,31.0,63,0.00,,FEW055,0.48,VWS V14.01,2013-01-31 14:46:00,
2013-01-31 09:51:00,36.7,25.7,29.43,NW,312,11.0,33.0,64,0.00,,FEW055,0.48,VWS V14.01,2013-01-31 14:51:00,
2013-01-31 09:56:00,36.8,26.1,29.44,West,263,13.0,33.0,65,0.00,,FEW055,0.48,VWS V14.01,2013-01-31 14:56:00,
2013-01-31 10:01:00,36.7,26.1,29.44,West,278,15.0,22.0,65,0.00,,BKN050,0.48,VWS V14.01,2013-01-31 15:01:00,
2013-01-31 10:06:00,36.9,26.6,29.45,WNW,286,14.0,26.0,66,0.00,,BKN050,0.48,VWS V14.01,2013-01-31 15:06:00,
2013-01-31 10:11:00,37.0,26.7,29.45,NW,319,9.0,26.0,66,0.00,,BKN050,0.48,VWS V14.01,2013-01-31 15:11:00,
2013-01-31 10:16:00,37.3,26.3,29.45,West,280,13.0,26.0,64,0.00,,BKN050,0.48,VWS V14.01,2013-01-31 15:16:00,
2013-01-31 10:21:00,37.7,24.3,29.46,WNW,295,22.0,26.0,58,0.00,,BKN050,0.48,VWS V14.01,2013-01-31 15:21:00,
2013-01-31 10:26:00,37.6,24.2,29.46,West,281,18.0,26.0,58,0.00,,BKN050,0.48,VWS V14.01,2013-01-31 15:26:00,
2013-01-31 10:31:00,37.3,23.1,29.47,WNW,293,23.0,23.0,56,0.00,,BKN050,0.48,VWS V14.01,2013-01-31 15:31:00,
2013-01-31 10:36:00,37.3,24.3,29.47,WSW,249,9.0,23.0,59,0.00,,BKN050,0.48,VWS V14.01,2013-01-31 15:36:00,
2013-01-31 10:41:00,37.3,24.3,29.48,WNW,302,12.0,23.0,59,0.00,,BKN050,0.48,VWS V14.01,2013-01-31 15:41:00,
2013-01-31 10:46:00,37.1,23.3,29.48,WNW,290,8.0,24.0,57,0.00,,BKN050,0.48,VWS V14.01,2013-01-31 15:46:00,
2013-01-31 10:51:00,37.1,22.0,29.48,West,278,14.0,33.0,54,0.00,,BKN050,0.48,VWS V14.01,2013-01-31 15:51:00,
2013-01-31 10:56:00,37.0,22.4,29.49,WNW,290,27.0,33.0,55,0.00,,BKN050,0.48,VWS V14.01,2013-01-31 15:56:00,
2013-01-31 11:01:00,36.4,22.6,29.49,WNW,283,9.0,19.0,57,0.00,,BKN070,0.48,VWS V14.01,2013-01-31 16:01:00,
2013-01-31 11:06:00,36.5,22.7,29.49,West,281,5.0,19.0,57,0.00,,BKN070,0.48,VWS V14.01,2013-01-31 16:06:00,
2013-01-31 11:11:00,36.8,22.2,29.49,West,259,12.0,24.0,55,0.00,,BKN070,0.48,VWS V14.01,2013-01-31 16:11:00,
2013-01-31 11:16:00,36.6,21.5,29.49,WNW,290,16.0,32.0,54,0.00,,BKN070,0.48,VWS V14.01,2013-01-31 16:16:00,
2013-01-31 11:21:00,36.3,21.3,29.49,WSW,245,6.0,32.0,54,0.00,,BKN070,0.48,VWS V14.01,2013-01-31 16:21:00,
2013-01-31 11:26:00,36.1,21.9,29.50,WNW,298,18.0,32.0,56,0.00,,BKN070,0.48,VWS V14.01,2013-01-31 16:26:00,
2013-01-31 11:31:00,35.6,21.5,29.50,NW,305,14.0,22.0,56,0.00,,BKN070,0.48,VWS V14.01,2013-01-31 16:31:00,
2013-01-31 11:36:00,35.2,22.7,29.51,WNW,284,12.0,22.0,60,0.00,,BKN070,0.48,VWS V14.01,2013-01-31 16:36:00,
2013-01-31 11:41:00,34.9,23.2,29.51,WNW,290,10.0,26.0,62,0.00,,BKN070,0.48,VWS V14.01,2013-01-31 16:41:00,
2013-01-31 11:46:00,34.5,24.0,29.51,West,281,10.0,26.0,65,0.00,,BKN070,0.48,VWS V14.01,2013-01-31 16:46:00,
2013-01-31 11:51:00,34.0,24.6,29.52,WNW,283,11.0,28.0,68,0.00,,BKN070,0.48,VWS V14.01,2013-01-31 16:51:00,
2013-01-31 11:56:00,33.6,24.5,29.52,West,271,7.0,28.0,69,0.00,,BKN070,0.48,VWS V14.01,2013-01-31 16:56:00,
2013-01-31 12:01:00,33.3,24.6,29.53,North,349,18.0,18.0,70,0.00,,OVC060,0.48,VWS V14.01,2013-01-31 17:01:00,
2013-01-31 12:06:00,33.1,24.7,29.53,WNW,297,9.0,26.0,71,0.00,,OVC060,0.48,VWS V14.01,2013-01-31 17:06:00,
2013-01-31 12:11:00,32.7,25.3,29.54,West,262,15.0,26.0,74,0.00,,OVC060,0.48,VWS V14.01,2013-01-31 17:11:00,
2013-01-31 12:16:00,32.2,25.8,29.54,West,275,8.0,26.0,77,0.00,,OVC060,0.48,VWS V14.01,2013-01-31 17:16:00,
2013-01-31 12:21:00,31.4,26.5,29.55,WNW,287,23.0,26.0,82,0.00,,OVC060,0.48,VWS V14.01,2013-01-31 17:21:00,
2013-01-31 12:26:00,30.2,27.1,29.55,NW,307,8.0,26.0,88,0.00,,OVC060,0.48,VWS V14.01,2013-01-31 17:26:00,
2013-01-31 12:31:00,30.3,27.5,29.54,WNW,283,13.0,18.0,89,0.00,,OVC060,0.48,VWS V14.01,2013-01-31 17:31:00,
2013-01-31 12:36:00,31.0,27.6,29.55,NW,319,8.0,24.0,87,0.00,,OVC060,0.48,VWS V14.01,2013-01-31 17:36:00,
2013-01-31 12:41:00,30.9,26.9,29.55,WNW,293,13.0,24.0,85,0.00,,OVC060,0.48,VWS V14.01,2013-01-31 17:41:00,
2013-01-31 12:46:00,31.4,24.7,29.54,NE,40,18.0,28.0,76,0.00,,OVC060,0.48,VWS V14.01,2013-01-31 17:46:00,
2013-01-31 12:51:00,32.3,24.6,29.55,WNW,295,18.0,28.0,73,0.00,,OVC060,0.48,VWS V14.01,2013-01-31 17:51:00,
2013-01-31 12:56:00,33.1,22.6,29.55,WSW,248,23.0,28.0,65,0.00,,OVC060,0.48,VWS V14.01,2013-01-31 17:56:00,
2013-01-31 13:01:00,33.1,21.5,29.55,West,275,17.0,17.0,62,0.00,,,0.48,VWS V14.01,2013-01-31 18:01:00,
2013-01-31 13:06:00,33.0,21.4,29.56,West,266,14.0,19.0,62,0.00,,,0.48,VWS V14.01,2013-01-31 18:06:00,
2013-01-31 13:11:00,32.9,21.3,29.56,WNW,283,16.0,26.0,62,0.00,,,0.48,VWS V14.01,2013-01-31 18:11:00,
2013-01-31 13:16:00,32.4,22.0,29.57,WNW,295,9.0,26.0,65,0.00,,,0.48,VWS V14.01,2013-01-31 18:16:00,
2013-01-31 13:21:00,32.0,22.6,29.56,WSW,257,8.0,26.0,68,0.00,,,0.48,VWS V14.01,2013-01-31 18:21:00,
2013-01-31 13:26:00,32.1,22.8,29.56,West,274,7.0,26.0,68,0.00,,,0.48,VWS V14.01,2013-01-31 18:26:00,
2013-01-31 13:31:00,32.7,22.6,29.56,North,352,14.0,16.0,66,0.00,,OVC060,0.48,VWS V14.01,2013-01-31 18:31:00,
2013-01-31 13:36:00,33.0,18.6,29.56,WNW,283,13.0,29.0,55,0.00,,OVC060,0.48,VWS V14.01,2013-01-31 18:36:00,
2013-01-31 13:41:00,33.0,18.2,29.57,WNW,291,19.0,29.0,54,0.00,,OVC060,0.48,VWS V14.01,2013-01-31 18:41:00,
2013-01-31 13:46:00,32.7,17.5,29.57,WSW,257,15.0,29.0,53,0.00,,OVC060,0.48,VWS V14.01,2013-01-31 18:46:00,
2013-01-31 13:51:00,32.4,17.2,29.58,WNW,302,18.0,29.0,53,0.00,,OVC060,0.48,VWS V14.01,2013-01-31 18:51:00,
2013-01-31 13:56:00,32.5,17.7,29.58,WNW,290,6.0,29.0,54,0.00,,OVC060,0.48,VWS V14.01,2013-01-31 18:56:00,
2013-01-31 14:01:00,32.4,18.0,29.59,NW,304,13.0,29.0,55,0.00,,BKN075,0.48,VWS V14.01,2013-01-31 19:01:00,
2013-01-31 14:06:00,32.1,17.8,29.58,WNW,297,13.0,29.0,55,0.00,,BKN075,0.48,VWS V14.01,2013-01-31 19:06:00,
2013-01-31 14:11:00,31.9,18.4,29.59,West,266,18.0,29.0,57,0.00,,BKN075,0.48,VWS V14.01,2013-01-31 19:11:00,
2013-01-31 14:16:00,32.0,17.2,29.59,West,273,17.0,29.0,54,0.00,,BKN075,0.48,VWS V14.01,2013-01-31 19:16:00,
2013-01-31 14:21:00,32.3,17.1,29.59,WNW,293,9.0,29.0,53,0.00,,BKN075,0.48,VWS V14.01,2013-01-31 19:21:00,
2013-01-31 14:26:00,32.4,16.3,29.59,West,278,20.0,29.0,51,0.00,,BKN075,0.48,VWS V14.01,2013-01-31 19:26:00,
2013-01-31 14:31:00,32.0,15.9,29.59,West,278,18.0,28.0,51,0.00,,BKN075,0.48,VWS V14.01,2013-01-31 19:31:00,
2013-01-31 14:36:00,32.0,16.8,29.60,WNW,290,12.0,28.0,53,0.00,,BKN075,0.48,VWS V14.01,2013-01-31 19:36:00,
2013-01-31 14:41:00,31.6,16.9,29.60,WNW,285,17.0,28.0,54,0.00,,BKN075,0.48,VWS V14.01,2013-01-31 19:41:00,
2013-01-31 14:46:00,31.4,17.1,29.60,WNW,294,13.0,28.0,55,0.00,,BKN075,0.48,VWS V14.01,2013-01-31 19:46:00,
2013-01-31 14:51:00,31.3,17.4,29.61,WNW,293,21.0,28.0,56,0.00,,BKN075,0.48,VWS V14.01,2013-01-31 19:51:00,
2013-01-31 14:56:00,31.5,17.6,29.61,WNW,298,10.0,28.0,56,0.00,,BKN075,0.48,VWS V14.01,2013-01-31 19:56:00,
2013-01-31 15:01:00,32.0,17.7,29.61,WNW,293,15.0,17.0,55,0.00,,OVC070,0.48,VWS V14.01,2013-01-31 20:01:00,
2013-01-31 15:06:00,32.3,17.1,29.61,NW,307,10.0,30.0,53,0.00,,OVC070,0.48,VWS V14.01,2013-01-31 20:06:00,
2013-01-31 15:11:00,32.4,17.2,29.61,WNW,283,8.0,30.0,53,0.00,,OVC070,0.48,VWS V14.01,2013-01-31 20:11:00,
2013-01-31 15:16:00,32.3,16.2,29.62,NW,312,16.0,30.0,51,0.00,,OVC070,0.48,VWS V14.01,2013-01-31 20:16:00,
2013-01-31 15:21:00,32.5,16.4,29.62,WNW,293,13.0,30.0,51,0.00,,OVC070,0.48,VWS V14.01,2013-01-31 20:21:00,
2013-01-31 15:26:00,32.8,16.7,29.62,WNW,283,9.0,30.0,51,0.00,,OVC070,0.48,VWS V14.01,2013-01-31 20:26:00,
2013-01-31 15:31:00,32.5,17.7,29.63,WNW,283,15.0,15.0,54,0.00,,OVC070,0.48,VWS V14.01,2013-01-31 20:31:00,
2013-01-31 15:36:00,32.0,16.4,29.63,West,275,13.0,24.0,52,0.00,,OVC070,0.48,VWS V14.01,2013-01-31 20:36:00,
2013-01-31 15:41:00,31.7,15.7,29.63,West,281,20.0,24.0,51,0.00,,OVC070,0.48,VWS V14.01,2013-01-31 20:41:00,
2013-01-31 15:46:00,31.5,15.5,29.63,NW,304,11.0,24.0,51,0.00,,OVC070,0.48,VWS V14.01,2013-01-31 20:46:00,
2013-01-31 15:51:00,31.4,15.4,29.63,NW,311,9.0,28.0,51,0.00,,OVC070,0.48,VWS V14.01,2013-01-31 20:51:00,
2013-01-31 15:56:00,31.5,15.5,29.64,WNW,293,13.0,28.0,51,0.00,,OVC070,0.48,VWS V14.01,2013-01-31 20:56:00,
2013-01-31 16:01:00,31.4,15.8,29.64,WNW,302,10.0,15.0,52,0.00,,BKN070,0.48,VWS V14.01,2013-01-31 21:01:00,
2013-01-31 16:06:00,31.4,16.3,29.65,West,276,6.0,21.0,53,0.00,,BKN070,0.48,VWS V14.01,2013-01-31 21:06:00,
2013-01-31 16:11:00,31.2,18.2,29.65,WNW,291,15.0,21.0,58,0.00,,BKN070,0.48,VWS V14.01,2013-01-31 21:11:00,
2013-01-31 16:16:00,30.7,18.9,29.65,West,281,6.0,21.0,61,0.00,,BKN070,0.48,VWS V14.01,2013-01-31 21:16:00,
2013-01-31 16:21:00,30.3,19.6,29.64,West,269,12.0,21.0,64,0.00,,BKN070,0.48,VWS V14.01,2013-01-31 21:21:00,
2013-01-31 16:26:00,30.1,19.8,29.65,WNW,296,16.0,23.0,65,0.00,,BKN070,0.48,VWS V14.01,2013-01-31 21:26:00,
2013-01-31 16:31:00,30.0,20.0,29.65,WNW,293,14.0,17.0,66,0.00,,BKN070,0.48,VWS V14.01,2013-01-31 21:31:00,
2013-01-31 16:36:00,30.1,20.1,29.65,West,273,8.0,22.0,66,0.00,,BKN070,0.48,VWS V14.01,2013-01-31 21:36:00,
2013-01-31 16:41:00,30.4,20.4,29.65,WNW,283,15.0,22.0,66,0.00,,BKN070,0.48,VWS V14.01,2013-01-31 21:41:00,
2013-01-31 16:46:00,30.6,20.2,29.65,NW,322,4.0,22.0,65,0.00,,BKN070,0.48,VWS V14.01,2013-01-31 21:46:00,
2013-01-31 16:51:00,30.6,19.5,29.66,West,277,10.0,22.0,63,0.00,,BKN070,0.48,VWS V14.01,2013-01-31 21:51:00,
2013-01-31 16:56:00,30.5,17.9,29.66,WNW,297,16.0,22.0,59,0.00,,BKN070,0.48,VWS V14.01,2013-01-31 21:56:00,
2013-01-31 17:01:00,30.4,17.0,29.66,WNW,295,24.0,33.0,57,0.00,,OVC070,0.48,VWS V14.01,2013-01-31 22:01:00,
2013-01-31 17:06:00,30.0,18.2,29.68,WNW,297,16.0,34.0,61,0.00,,OVC070,0.48,VWS V14.01,2013-01-31 22:06:00,
2013-01-31 17:11:00,28.6,21.7,29.68,NW,305,10.0,34.0,75,0.00,,OVC070,0.48,VWS V14.01,2013-01-31 22:11:00,
2013-01-31 17:16:00,27.7,22.0,29.69,WNW,290,8.0,34.0,79,0.00,,OVC070,0.48,VWS V14.01,2013-01-31 22:16:00,
2013-01-31 17:21:00,27.8,20.6,29.69,WNW,290,11.0,34.0,74,0.00,,OVC070,0.48,VWS V14.01,2013-01-31 22:21:00,
2013-01-31 17:26:00,28.0,19.2,29.70,WNW,296,7.0,34.0,69,0.00,,OVC070,0.48,VWS V14.01,2013-01-31 22:26:00,
2013-01-31 17:31:00,28.2,16.9,29.70,NW,318,7.0,26.0,62,0.00,,OVC070,0.48,VWS V14.01,2013-01-31 22:31:00,
2013-01-31 17:36:00,28.3,15.8,29.70,West,278,14.0,26.0,59,0.00,,OVC070,0.48,VWS V14.01,2013-01-31 22:36:00,
2013-01-31 17:41:00,28.3,15.0,29.70,West,266,13.0,26.0,57,0.00,,OVC070,0.48,VWS V14.01,2013-01-31 22:41:00,
2013-01-31 17:46:00,28.2,14.1,29.71,WNW,298,13.0,33.0,55,0.00,,OVC070,0.48,VWS V14.01,2013-01-31 22:46:00,
2013-01-31 17:51:00,28.1,14.0,29.71,SW,225,18.0,33.0,55,0.00,,OVC070,0.48,VWS V14.01,2013-01-31 22:51:00,
2013-01-31 17:56:00,28.0,14.3,29.71,WNW,293,16.0,33.0,56,0.00,,OVC070,0.48,VWS V14.01,2013-01-31 22:56:00,
2013-01-31 18:01:00,28.0,14.3,29.72,WSW,248,15.0,16.0,56,0.00,,BKN080,0.48,VWS V14.01,2013-01-31 23:01:00,
2013-01-31 18:06:00,27.9,14.2,29.73,WNW,293,9.0,28.0,56,0.00,,BKN080,0.48,VWS V14.01,2013-01-31 23:06:00,
2013-01-31 18:11:00,27.9,13.8,29.73,West,280,11.0,28.0,55,0.00,,BKN080,0.48,VWS V14.01,2013-01-31 23:11:00,
2013-01-31 18:16:00,28.0,13.9,29.73,NW,309,8.0,28.0,55,0.00,,BKN080,0.48,VWS V14.01,2013-01-31 23:16:00,
2013-01-31 18:21:00,28.0,12.7,29.73,West,275,9.0,28.0,52,0.00,,BKN080,0.48,VWS V14.01,2013-01-31 23:21:00,
2013-01-31 18:26:00,28.0,13.1,29.74,WNW,294,21.0,28.0,53,0.00,,BKN080,0.48,VWS V14.01,2013-01-31 23:26:00,
2013-01-31 18:31:00,27.9,13.4,29.74,NW,314,7.0,23.0,54,0.00,,BKN080,0.48,VWS V14.01,2013-01-31 23:31:00,
2013-01-31 18:36:00,27.8,13.8,29.75,North,359,17.0,24.0,55,0.00,,BKN080,0.48,VWS V14.01,2013-01-31 23:36:00,
2013-01-31 18:41:00,27.8,13.8,29.75,West,276,16.0,27.0,55,0.00,,BKN080,0.48,VWS V14.01,2013-01-31 23:41:00,
2013-01-31 18:46:00,27.6,14.0,29.75,WNW,283,19.0,27.0,56,0.00,,BKN080,0.48,VWS V14.01,2013-01-31 23:46:00,
2013-01-31 18:51:00,27.6,14.0,29.76,WNW,283,6.0,27.0,56,0.00,,BKN080,0.48,VWS V14.01,2013-01-31 23:51:00,
2013-01-31 18:56:00,27.6,14.8,29.76,WNW,283,9.0,27.0,58,0.00,,BKN080,0.48,VWS V14.01,2013-01-31 23:56:00,
2013-01-31 19:01:00,27.5,14.3,29.76,WNW,293,11.0,15.0,57,0.00,,OVC085,0.48,VWS V14.01,2013-02-01 00:01:00,
2013-01-31 19:06:00,27.4,14.6,29.76,WNW,285,13.0,22.0,58,0.00,,OVC085,0.48,VWS V14.01,2013-02-01 00:06:00,
2013-01-31 19:11:00,27.3,14.9,29.76,WNW,290,14.0,22.0,59,0.00,,OVC085,0.48,VWS V14.01,2013-02-01 00:11:00,
2013-01-31 19:16:00,27.2,15.9,29.76,West,278,6.0,22.0,62,0.00,,OVC085,0.48,VWS V14.01,2013-02-01 00:16:00,
2013-01-31 19:21:00,27.1,15.8,29.76,West,276,6.0,22.0,62,0.00,,OVC085,0.48,VWS V14.01,2013-02-01 00:21:00,
2013-01-31 19:26:00,26.9,16.0,29.77,West,281,12.0,22.0,63,0.00,,OVC085,0.48,VWS V14.01,2013-02-01 00:26:00,
2013-01-31 19:31:00,26.9,16.0,29.77,WNW,290,5.0,10.0,63,0.00,,OVC085,0.48,VWS V14.01,2013-02-01 00:31:00,
2013-01-31 19:36:00,27.0,15.7,29.77,WNW,293,11.0,18.0,62,0.00,,OVC085,0.48,VWS V14.01,2013-02-01 00:36:00,
2013-01-31 19:41:00,27.0,15.7,29.77,WNW,291,4.0,18.0,62,0.00,,OVC085,0.48,VWS V14.01,2013-02-01 00:41:00,
2013-01-31 19:46:00,27.1,15.1,29.77,WNW,285,13.0,20.0,60,0.00,,OVC085,0.48,VWS V14.01,2013-02-01 00:46:00,
2013-01-31 19:51:00,27.1,14.3,29.77,NW,304,13.0,20.0,58,0.00,,OVC085,0.48,VWS V14.01,2013-02-01 00:51:00,
2013-01-31 19:56:00,27.2,14.4,29.77,NW,304,10.0,20.0,58,0.00,,OVC085,0.48,VWS V14.01,2013-02-01 00:56:00,
2013-01-31 20:01:00,27.3,14.5,29.77,WNW,290,7.0,12.0,58,0.00,,OVC090,0.48,VWS V14.01,2013-02-01 01:01:00,
2013-01-31 20:06:00,27.2,13.6,29.78,WSW,252,5.0,23.0,56,0.00,,OVC090,0.48,VWS V14.01,2013-02-01 01:06:00,
2013-01-31 20:11:00,27.2,14.4,29.78,WNW,293,4.0,23.0,58,0.00,,OVC090,0.48,VWS V14.01,2013-02-01 01:11:00,
2013-01-31 20:16:00,27.2,14.8,29.77,WNW,295,3.0,23.0,59,0.00,,OVC090,0.48,VWS V14.01,2013-02-01 01:16:00,
2013-01-31 20:21:00,27.2,14.4,29.78,WNW,286,11.0,23.0,58,0.00,,OVC090,0.48,VWS V14.01,2013-02-01 01:21:00,
2013-01-31 20:26:00,27.0,15.0,29.78,WNW,288,7.0,23.0,60,0.00,,OVC090,0.48,VWS V14.01,2013-02-01 01:26:00,
2013-01-31 20:31:00,27.0,15.4,29.78,WNW,298,6.0,12.0,61,0.00,,OVC090,0.48,VWS V14.01,2013-02-01 01:31:00,
2013-01-31 20:36:00,26.9,15.6,29.77,West,277,7.0,14.0,62,0.00,,OVC090,0.48,VWS V14.01,2013-02-01 01:36:00,
2013-01-31 20:41:00,27.0,15.7,29.77,West,274,6.0,16.0,62,0.00,,OVC090,0.48,VWS V14.01,2013-02-01 01:41:00,
2013-01-31 20:46:00,27.0,16.1,29.77,WNW,288,5.0,16.0,63,0.00,,OVC090,0.48,VWS V14.01,2013-02-01 01:46:00,
2013-01-31 20:51:00,26.9,16.0,29.77,West,281,13.0,16.0,63,0.00,,OVC090,0.48,VWS V14.01,2013-02-01 01:51:00,
2013-01-31 20:56:00,26.9,15.6,29.78,WNW,298,7.0,16.0,62,0.00,,OVC090,0.48,VWS V14.01,2013-02-01 01:56:00,
2013-01-31 21:01:00,26.9,16.0,29.78,NW,316,10.0,14.0,63,0.00,,OVC070,0.48,VWS V14.01,2013-02-01 02:01:00,
2013-01-31 21:06:00,26.9,15.6,29.78,West,279,8.0,16.0,62,0.00,,OVC070,0.48,VWS V14.01,2013-02-01 02:06:00,
2013-01-31 21:11:00,26.8,15.9,29.77,West,281,8.0,16.0,63,0.00,,OVC070,0.48,VWS V14.01,2013-02-01 02:11:00,
2013-01-31 21:16:00,26.7,16.2,29.78,WSW,255,5.0,16.0,64,0.00,,OVC070,0.48,VWS V14.01,2013-02-01 02:16:00,
2013-01-31 21:21:00,26.6,16.1,29.78,WNW,293,14.0,21.0,64,0.00,,OVC070,0.48,VWS V14.01,2013-02-01 02:21:00,
2013-01-31 21:26:00,26.5,16.3,29.78,WNW,293,14.0,21.0,65,0.00,,OVC070,0.48,VWS V14.01,2013-02-01 02:26:00,
2013-01-31 21:31:00,26.3,16.1,29.78,WNW,298,5.0,9.0,65,0.00,,OVC070,0.48,VWS V14.01,2013-02-01 02:31:00,
2013-01-31 21:36:00,26.2,16.4,29.78,WNW,293,5.0,16.0,66,0.00,,OVC070,0.48,VWS V14.01,2013-02-01 02:36:00,
2013-01-31 21:41:00,26.2,16.8,29.78,WNW,302,6.0,16.0,67,0.00,,OVC070,0.48,VWS V14.01,2013-02-01 02:41:00,
2013-01-31 21:46:00,26.2,16.8,29.78,WNW,288,6.0,16.0,67,0.00,,OVC070,0.48,VWS V14.01,2013-02-01 02:46:00,
2013-01-31 21:51:00,26.1,17.0,29.78,WNW,297,9.0,17.0,68,0.00,,OVC070,0.48,VWS V14.01,2013-02-01 02:51:00,
2013-01-31 21:56:00,26.1,17.3,29.78,ENE,62,7.0,17.0,69,0.00,,OVC070,0.48,VWS V14.01,2013-02-01 02:56:00,
2013-01-31 22:01:00,26.1,17.3,29.78,WNW,295,5.0,7.0,69,0.00,,BKN060,0.48,VWS V14.01,2013-02-01 03:01:00,
2013-01-31 22:06:00,26.0,17.2,29.78,WNW,290,6.0,12.0,69,0.00,,BKN060,0.48,VWS V14.01,2013-02-01 03:06:00,
2013-01-31 22:11:00,25.9,17.1,29.78,WNW,283,7.0,13.0,69,0.00,,BKN060,0.48,VWS V14.01,2013-02-01 03:11:00,
2013-01-31 22:16:00,25.8,17.4,29.78,NW,308,11.0,14.0,70,0.00,,BKN060,0.48,VWS V14.01,2013-02-01 03:16:00,
2013-01-31 22:21:00,25.8,17.4,29.78,WNW,291,4.0,14.0,70,0.00,,BKN060,0.48,VWS V14.01,2013-02-01 03:21:00,
2013-01-31 22:26:00,25.8,17.4,29.78,WNW,286,3.0,14.0,70,0.00,,BKN060,0.48,VWS V14.01,2013-02-01 03:26:00,
2013-01-31 22:31:00,25.8,17.4,29.78,WSW,250,7.0,7.0,70,0.00,,BKN060,0.48,VWS V14.01,2013-02-01 03:31:00,
2013-01-31 22:36:00,25.9,18.1,29.79,West,273,8.0,15.0,72,0.00,,BKN060,0.48,VWS V14.01,2013-02-01 03:36:00,
2013-01-31 22:41:00,25.2,20.2,29.79,NW,308,10.0,18.0,81,0.00,,BKN060,0.48,VWS V14.01,2013-02-01 03:41:00,
2013-01-31 22:46:00,24.4,21.1,29.79,West,271,11.0,20.0,87,0.00,,BKN060,0.48,VWS V14.01,2013-02-01 03:46:00,
2013-01-31 22:51:00,24.0,21.5,29.78,NW,315,9.0,20.0,90,0.00,,BKN060,0.48,VWS V14.01,2013-02-01 03:51:00,
2013-01-31 22:56:00,23.9,21.7,29.79,West,280,12.0,20.0,91,0.00,,BKN060,0.48,VWS V14.01,2013-02-01 03:56:00,
2013-01-31 23:01:00,24.0,21.8,29.79,WNW,301,11.0,11.0,91,0.00,,,0.48,VWS V14.01,2013-02-01 04:01:00,
2013-01-31 23:06:00,24.0,21.8,29.78,West,271,6.0,12.0,91,0.00,,,0.48,VWS V14.01,2013-02-01 04:06:00,
2013-01-31 23:11:00,24.0,21.5,29.78,West,264,2.0,12.0,90,0.00,,,0.48,VWS V14.01,2013-02-01 04:11:00,
2013-01-31 23:16:00,23.9,21.4,29.79,NW,308,6.0,12.0,90,0.00,,,0.48,VWS V14.01,2013-02-01 04:16:00,
2013-01-31 23:21:00,23.9,21.1,29.78,WNW,289,3.0,12.0,89,0.00,,,0.48,VWS V14.01,2013-02-01 04:21:00,
2013-01-31 23:26:00,23.9,21.1,29.78,NW,316,2.0,12.0,89,0.00,,,0.48,VWS V14.01,2013-02-01 04:26:00,
2013-01-31 23:31:00,23.9,21.1,29.78,WNW,291,2.0,3.0,89,0.00,,,0.48,VWS V14.01,2013-02-01 04:31:00,
2013-01-31 23:36:00,23.8,20.8,29.79,WNW,283,3.0,6.0,88,0.00,,,0.48,VWS V14.01,2013-02-01 04:36:00,
2013-01-31 23:41:00,23.8,20.8,29.78,WNW,283,5.0,6.0,88,0.00,,,0.48,VWS V14.01,2013-02-01 04:41:00,
2013-01-31 23:46:00,23.7,20.4,29.79,WNW,283,2.0,6.0,87,0.00,,,0.48,VWS V14.01,2013-02-01 04:46:00,
2013-01-31 23:51:00,23.7,20.4,29.79,WSW,257,2.0,6.0,87,0.00,,,0.48,VWS V14.01,2013-02-01 04:51:00,
2013-01-31 23:56:00,23.6,20.3,29.79,West,273,3.0,7.0,87,0.00,,,0.48,VWS V14.01,2013-02-01 04:56:00,